Terminal Aerodrome Forecast
Issued by NWS Kansas City/Pleasant Hill, MO

Home | Current Version | Previous Version | Text Only | Print | Product List | Glossary On
Versions: 1 2 3 4 5 6 7 8 9 10 11 12 13
000
FTUS43 KEAX 261500 AAA
TAFMCI
TAF AMD
KMCI 261559Z 2616/2712 21010KT P6SM VCTS SCT070CB BKN150
     FM262100 20010KT P6SM SCT150
     FM270000 VRB06KT P6SM SCT045 BKN150
     FM270500 35007KT P6SM BKN150=

USA.gov is the U.S. government's official web portal to all federal, state and local government web resources and services.